Raijin-2

operational
NORAD ID: 39769 Int'l Des: 2014-029 Owner: TOHO Country: J
LEOCIRCULARRETROGRADESSO

About Raijin-2

Description loading...

Live Position

Loading 3D Globe...

Upcoming Passes

Altitude History

Altitude vs Time

uPlot chart will show altitude changes over time

Two-Line Element Set

1 39769U 14029D 25345.63717258 .00010295 00000-0 92173-3 0 9990
2 39769 97.6767 52.7588 0003016 191.8741 168.2410 14.96013216625484
Epoch: Dec 11, 2025 • Age: 8 hours

Current Status

Altitude 592.0 km
Velocity 7.57 km/s
Sub-Earth Point 67.76°N, 41.35°W
Launch Date May 24, 2014
Age 11.5 years
Type other

Technical Details

Classification Payload
Mass 43.00 kg
Dry Mass 43.00 kg
Total Mass 43.00 kg
Length 0.50 m
Diameter 0.50 m
Span 0.50 m
Shape Box + Ant
Manufacturer TOHO
Phase Status In Orbit
Owner/State TOHO/J

Large Constellations

Loading constellations...